Wind_Speed
11 12 16 16 15 15 19 21 22 18 3 11 16 19 23 20 20 19 22 23 22 22 18 16 15 12 14 19 20 19 18 19 21 18 19 22 24 27 26 23 20 16 15 15
15 19 17 14 15 15 19 23 22 20 9 18 14 21 21 27 23 14 15 24 26 26 24 23 19 16 14 19 21 23 21 20 18 17 18 21 21 21 21 21 19 18 16 15
18 16 11 14 17 20 19 20 21 20 14 20 15 18 28 30 29 23 21 17 25 28 28 26 22 18 17 21 22 23 24 24 22 20 21 22 25 24 22 20 18 17 16 15
11 14 16 18 22 19 26 17 25 24 16 16 14 13 24 28 37 34 25 27 26 31 30 27 24 20 18 20 21 21 25 26 24 24 25 24 23 22 17 16 15 16 15 13
13 15 16 22 23 22 27 23 29 28 25 25 25 8 27 29 40 42 31 30 29 29 30 31 27 21 18 22 22 20 23 27 27 24 23 24 20 19 19 19 17 15 15 13
13 13 18 22 25 25 24 29 31 29 23 19 29 24 35 24 31 39 35 32 27 28 29 29 26 22 21 22 25 25 24 24 26 25 25 23 22 22 22 20 16 17 18 15
12 14 14 13 20 30 26 24 14 7 5 8 22 26 28 15 18 32 29 31 30 27 25 30 33 29 25 24 24 26 27 26 25 24 25 25 25 25 23 20 15 17 19 16
13 12 13 12 15 22 27 26 14 5 3 12 23 18 38 28 28 34 33 28 33 30 22 25 30 28 25 23 23 26 28 28 27 25 25 24 27 25 24 22 21 23 20 15
12 14 23 17 19 15 28 29 26 28 33 20 26 36 34 30 30 27 33 31 36 32 29 26 29 31 28 24 21 25 27 28 28 27 25 25 29 27 25 23 21 20 18 15
16 20 18 26 27 22 17 20 18 13 5 12 13 25 23 18 24 22 30 35 31 32 30 28 30 32 28 23 19 18 26 27 26 27 28 26 26 24 21 19 21 22 19 20
22 15 23 23 25 25 22 21 21 23 19 11 11 20 34 32 23 14 37 32 28 29 31 26 23 28 27 23 22 19 21 28 28 27 28 29 28 27 25 22 19 18 19 18
16 15 20 25 23 27 26 26 19 19 14 23 25 27 17 23 25 15 20 18 40 32 29 25 22 23 30 25 23 19 15 26 29 27 27 27 26 25 26 25 22 21 20 18
12 9 20 25 15 14 12 19 23 25 21 25 16 33 25 8 22 28 32 17 25 47 42 39 31 27 28 23 19 18 15 14 29 30 28 27 28 28 27 26 25 24 24 24
13 12 10 13 20 24 26 29 25 24 23 30 30 28 37 34 20 19 30 36 36 33 44 43 42 36 28 29 22 16 15 12 19 32 32 30 28 27 25 24 24 25 26 28
16 20 19 21 25 25 21 27 24 26 27 26 28 29 26 38 32 22 22 26 27 35 46 42 40 40 50 32 28 22 19 15 13 27 33 30 28 28 27 27 26 25 26 27
25 24 24 32 28 28 28 27 24 26 28 25 18 13 12 25 33 33 33 31 27 28 42 41 44 46 41 37 31 29 26 22 16 16 22 25 27 28 29 28 27 27 26 26
21 17 19 29 26 26 28 16 13 15 16 22 17 10 11 18 22 27 32 27 30 33 35 39 41 51 50 37 38 27 26 27 23 17 14 16 18 21 24 27 28 29 29 28
24 28 28 32 23 8 23 15 17 17 21 12 7 10 14 23 19 20 22 16 7 13 26 27 27 63 59 53 38 34 36 30 26 24 21 19 19 20 22 24 28 30 30 29
8 16 29 24 23 29 31 25 18 11 17 27 8 13 24 23 22 19 17 20 18 11 17 25 35 30 60 58 50 40 44 38 32 32 31 28 26 28 29 28 29 30 31 31
15 20 13 15 7 4 4 6 11 7 23 21 16 3 18 22 25 26 25 23 19 27 22 15 15 15 23 29 37 31 32 39 36 43 36 36 32 32 34 34 32 31 33 33
22 16 15 17 13 22 17 12 5 9 19 28 22 16 8 9 17 23 26 25 22 23 19 16 15 13 24 24 24 22 27 30 26 16 24 33 31 31 29 33 31 31 31 33
17 8 15 13 11 14 23 16 8 3 9 32 19 22 12 7 7 13 17 19 19 16 12 12 13 16 15 16 17 17 15 13 21 31 30 31 22 27 25 24 20 23 27 29
10 13 18 13 8 9 6 7 9 9 9 7 26 19 9 9 9 10 14 15 15 14 12 11 13 15 17 20 21 22 20 21 22 23 24 20 13 11 9 9 20 20 25 24
25 21 23 22 11 16 12 8 12 8 7 4 10 18 17 9 12 13 10 8 8 9 10 11 12 13 14 16 18 21 24 27 26 29 31 31 27 27 26 30 34 35 30 17
24 19 19 23 13 13 17 10 14 7 7 3 0 6 13 10 7 12 11 6 4 3 6 6 9 13 15 13 12 13 15 17 19 19 22 27 31 30 30 30 27 27 24 19
14 12 15 15 9 7 11 14 19 11 11 10 9 5 10 7 12 9 9 0 1 0 3 5 1 4 6 9 12 11 11 12 11 11 12 14 19 22 24 26 26 27 28 25
Wind_Direction
222 245 254 248 247 264 294 299 284 277 194 308 286 236 242 231 223 214 211 197 198 209 218 223 227 220 198 189 182 182 173 175 176 178 171 166 157 152 151 153 155 159 162 165
227 233 245 266 285 278 291 296 294 293 260 295 265 243 242 237 250 231 219 211 203 209 219 224 227 220 200 195 192 187 181 189 179 175 175 171 165 159 158 159 162 161 162 177
240 239 248 248 265 283 287 293 290 301 260 265 264 248 235 244 246 230 223 230 213 216 221 225 228 221 211 197 197 185 188 187 186 191 181 178 175 175 172 172 170 169 165 176
269 259 260 256 270 280 291 267 290 295 255 238 248 265 255 246 233 225 221 219 226 219 226 231 229 224 207 200 201 192 192 195 190 194 193 187 183 180 179 182 190 189 189 196
269 284 278 269 274 279 286 277 292 301 278 260 271 256 261 246 233 228 223 221 226 231 227 227 228 220 214 205 203 193 192 202 198 198 197 191 182 183 185 192 190 201 201 208
308 292 281 283 265 262 283 289 287 289 292 228 251 259 267 251 246 237 236 220 223 234 229 228 230 221 220 215 209 206 203 205 209 205 203 201 192 192 197 199 197 199 206 203
302 297 294 304 296 257 274 286 309 311 232 230 249 250 256 247 254 237 244 233 223 229 230 230 224 221 218 217 213 213 209 210 214 210 208 207 199 202 203 207 207 204 209 209
349 333 311 278 308 300 283 286 266 288 296 291 280 248 266 263 271 263 248 244 227 220 234 232 228 220 220 218 219 218 214 209 214 213 210 211 213 216 208 221 214 208 207 201
344 307 296 279 281 304 285 286 286 272 275 278 270 261 270 279 264 250 240 226 228 219 235 235 230 227 222 224 221 220 220 217 213 214 212 209 216 220 214 213 212 203 201 210
341 311 317 294 279 275 285 294 293 283 252 265 253 261 258 264 302 244 219 219 223 224 230 238 233 228 224 226 222 226 221 224 218 214 211 213 217 227 230 225 216 206 208 218
329 318 320 311 283 289 289 288 331 299 259 244 276 270 268 266 281 238 226 218 219 220 226 235 232 229 222 223 224 221 220 221 221 214 211 214 216 217 220 223 225 227 227 234
311 309 309 309 288 268 279 279 332 340 307 293 257 262 263 256 269 259 231 238 232 227 225 223 222 211 219 220 223 216 213 217 223 222 217 217 222 224 227 227 221 227 236 241
309 302 316 320 299 267 290 303 319 326 317 301 267 258 258 273 248 236 213 242 241 230 226 224 224 225 216 214 207 201 197 212 216 224 223 220 221 222 224 229 229 229 233 243
305 302 288 302 293 309 312 306 313 312 312 302 298 288 255 257 266 229 226 233 232 232 220 217 221 226 225 218 209 196 197 214 219 216 223 223 224 228 230 232 235 235 236 240
297 288 281 275 263 299 292 293 300 305 307 295 295 297 275 247 240 247 212 255 227 227 218 216 220 224 231 222 220 207 208 218 226 216 218 224 223 227 230 231 233 235 236 239
298 288 281 277 271 285 292 290 287 281 316 304 271 302 271 229 238 250 222 223 255 237 224 209 221 218 224 221 218 218 213 218 217 213 216 220 224 224 228 233 235 236 237 238
297 298 300 281 284 297 295 293 329 331 323 317 291 309 255 260 201 223 240 241 214 223 232 246 228 226 224 225 220 217 216 212 215 212 203 210 217 226 229 232 234 235 238 240
281 281 282 277 300 270 273 272 304 355 336 309 268 203 198 214 220 219 215 231 273 267 241 261 270 207 220 221 215 214 222 220 216 220 226 231 238 242 241 239 236 237 239 241
320 287 273 252 257 277 280 271 299 270 326 344 322 195 203 200 205 207 220 228 251 283 258 245 232 204 201 212 205 214 218 222 225 230 230 233 244 251 251 251 247 242 244 243
296 317 262 240 246 262 351 238 268 297 266 307 349 292 222 230 209 216 219 224 223 228 221 222 232 256 227 198 208 225 220 220 224 234 235 235 234 238 241 243 244 246 248 249
313 307 283 284 253 259 266 294 326 217 248 259 337 340 262 232 223 198 199 203 213 215 195 188 169 188 224 231 229 225 231 272 227 245 271 246 251 275 289 232 248 251 253 250
304 295 293 287 252 253 244 262 312 230 252 250 303 338 304 271 190 170 176 183 197 208 212 198 195 190 202 217 226 232 235 253 238 245 242 240 249 263 278 273 285 266 266 272
300 294 289 269 271 213 268 279 230 231 273 269 264 301 315 227 259 208 198 195 199 202 210 220 218 224 218 221 232 237 241 241 236 239 249 226 189 181 197 232 281 292 295 288
310 296 285 289 290 259 271 294 235 191 200 268 276 277 298 121 190 218 200 213 225 233 242 247 251 244 231 233 242 235 234 234 232 233 240 245 249 256 263 264 264 270 280 286
302 288 282 265 283 275 252 275 230 208 142 124 214 276 281 252 143 126 126 133 154 191 213 222 244 255 257 259 256 242 241 241 246 249 247 246 252 260 265 263 262 252 260 259
336 322 273 263 316 328 203 204 219 209 148 162 165 177 128 136 186 137 145 87 234 162 1 1 319 251 245 238 238 242 243 253 248 240 236 254 260 262 265 266 263 263 265 264
Height
3170 3172 3173 3176 3178 3178 3179 3182 3182 3178 3178 3178 3177 3179 3180 3180 3180 3182 3183 3184 3185 3187 3190 3192 3194 3196 3199 3202 3204 3207 3209 3211 3212 3215 3217 3219 3221 3221 3223 3227 3230 3233 3235 3237
3168 3168 3171 3174 3175 3176 3177 3177 3177 3178 3177 3176 3175 3175 3177 3176 3176 3179 3179 3181 3183 3186 3188 3189 3191 3194 3197 3200 3202 3205 3207 3211 3212 3214 3216 3219 3222 3223 3225 3227 3229 3232 3235 3237
3165 3167 3169 3171 3171 3172 3171 3174 3174 3177 3176 3173 3172 3174 3175 3173 3175 3178 3179 3180 3180 3182 3184 3186 3188 3191 3195 3197 3200 3204 3206 3209 3211 3213 3214 3217 3220 3222 3224 3226 3228 3232 3234 3237
3163 3165 3166 3166 3167 3171 3168 3168 3171 3173 3173 3171 3171 3169 3170 3169 3168 3170 3174 3175 3176 3178 3181 3184 3185 3188 3191 3194 3197 3201 3204 3207 3208 3210 3212 3216 3219 3221 3225 3227 3228 3230 3233 3236
3163 3162 3162 3161 3162 3165 3164 3164 3165 3167 3166 3164 3163 3169 3161 3167 3165 3162 3166 3168 3171 3171 3175 3177 3180 3185 3189 3192 3194 3197 3201 3203 3206 3207 3210 3214 3218 3221 3223 3225 3227 3229 3231 3233
3159 3159 3160 3159 3158 3160 3162 3159 3157 3158 3159 3156 3156 3161 3153 3156 3154 3156 3159 3163 3165 3166 3168 3172 3177 3181 3185 3188 3191 3194 3197 3200 3203 3205 3207 3211 3214 3217 3219 3222 3225 3227 3229 3232
3155 3156 3157 3158 3155 3154 3158 3160 3158 3156 3155 3151 3153 3150 3145 3148 3149 3150 3151 3154 3158 3161 3164 3167 3170 3174 3179 3184 3188 3191 3193 3196 3200 3203 3206 3208 3211 3214 3217 3220 3222 3224 3227 3229
3152 3152 3153 3155 3155 3154 3151 3158 3160 3158 3153 3148 3146 3140 3134 3144 3145 3145 3147 3151 3154 3157 3159 3162 3166 3169 3175 3180 3184 3187 3190 3193 3195 3199 3202 3206 3209 3210 3213 3216 3219 3221 3224 3227
3152 3149 3150 3152 3151 3154 3148 3150 3154 3151 3148 3145 3142 3136 3133 3136 3138 3138 3140 3146 3148 3153 3155 3158 3162 3165 3170 3175 3180 3184 3187 3190 3192 3195 3199 3202 3205 3207 3210 3214 3217 3218 3220 3223
3152 3146 3146 3147 3147 3149 3148 3148 3147 3147 3146 3141 3133 3131 3128 3130 3131 3131 3134 3139 3143 3148 3152 3154 3157 3160 3166 3171 3177 3180 3184 3186 3189 3192 3196 3198 3201 3205 3208 3211 3213 3215 3217 3220
3149 3146 3143 3143 3144 3144 3143 3142 3145 3141 3138 3135 3133 3123 3125 3128 3130 3128 3133 3136 3139 3142 3147 3149 3152 3156 3161 3167 3172 3177 3179 3182 3185 3188 3192 3194 3196 3199 3202 3206 3210 3212 3214 3217
3147 3143 3139 3139 3137 3140 3141 3143 3143 3143 3133 3131 3124 3119 3122 3123 3125 3128 3130 3134 3138 3140 3143 3146 3148 3153 3156 3162 3168 3172 3175 3178 3181 3184 3188 3191 3194 3196 3199 3201 3205 3208 3210 3212
3145 3142 3138 3133 3134 3134 3134 3135 3137 3138 3132 3124 3122 3113 3122 3118 3119 3120 3121 3128 3130 3133 3139 3143 3145 3148 3153 3158 3163 3167 3171 3174 3176 3179 3183 3187 3189 3191 3194 3197 3200 3203 3206 3207
3144 3142 3141 3140 3141 3139 3134 3131 3133 3134 3128 3120 3113 3112 3115 3117 3119 3115 3115 3121 3123 3125 3132 3134 3139 3144 3150 3154 3158 3163 3166 3170 3172 3174 3177 3181 3184 3187 3190 3194 3196 3199 3201 3203
3141 3137 3137 3135 3135 3133 3131 3127 3126 3126 3121 3117 3108 3106 3105 3110 3113 3120 3115 3115 3117 3122 3125 3129 3133 3135 3141 3149 3153 3157 3162 3166 3167 3168 3171 3175 3180 3183 3186 3188 3191 3193 3195 3198
3133 3130 3130 3127 3128 3126 3123 3123 3121 3118 3111 3106 3106 3103 3102 3102 3107 3113 3113 3112 3116 3119 3120 3124 3127 3130 3136 3144 3148 3151 3155 3161 3164 3166 3167 3171 3174 3178 3180 3182 3185 3187 3190 3191
3126 3126 3124 3118 3121 3120 3117 3119 3116 3113 3110 3106 3098 3097 3098 3103 3101 3107 3110 3111 3112 3112 3115 3117 3122 3125 3128 3136 3143 3145 3149 3154 3158 3162 3165 3167 3170 3172 3174 3177 3179 3181 3183 3185
3120 3121 3121 3116 3119 3116 3109 3112 3109 3107 3106 3100 3095 3094 3097 3101 3099 3101 3104 3105 3107 3107 3107 3105 3103 3116 3123 3129 3134 3134 3141 3146 3151 3157 3160 3162 3164 3166 3169 3171 3173 3175 3176 3178
3116 3116 3113 3111 3112 3107 3106 3104 3103 3100 3106 3101 3096 3093 3094 3098 3097 3097 3097 3101 3103 3105 3109 3109 3104 3100 3106 3117 3121 3127 3135 3140 3146 3150 3153 3155 3158 3161 3163 3166 3168 3169 3170 3170
3113 3111 3108 3105 3104 3105 3101 3098 3097 3094 3097 3100 3092 3091 3094 3093 3092 3094 3094 3095 3098 3099 3101 3105 3106 3101 3081 3094 3117 3125 3128 3133 3137 3143 3147 3148 3148 3152 3154 3157 3159 3161 3162 3164
3108 3107 3103 3100 3097 3098 3099 3096 3094 3091 3093 3094 3097 3093 3092 3089 3091 3089 3091 3093 3094 3096 3099 3101 3104 3109 3112 3112 3115 3121 3122 3125 3124 3125 3138 3138 3145 3138 3117 3135 3147 3152 3155 3152
3106 3104 3100 3096 3093 3093 3094 3094 3094 3092 3090 3087 3086 3091 3091 3094 3089 3088 3092 3094 3096 3096 3097 3103 3107 3111 3110 3110 3114 3118 3118 3117 3123 3133 3135 3134 3134 3136 3134 3132 3125 3141 3143 3139
3103 3101 3098 3097 3090 3088 3089 3089 3090 3088 3087 3089 3092 3098 3094 3092 3089 3090 3095 3095 3096 3098 3098 3100 3102 3105 3109 3109 3111 3115 3115 3120 3125 3125 3126 3127 3130 3132 3134 3135 3140 3139 3136 3137
3095 3093 3090 3089 3085 3085 3086 3086 3088 3088 3087 3087 3089 3095 3094 3087 3088 3088 3091 3093 3097 3097 3097 3099 3099 3101 3104 3107 3108 3109 3111 3117 3120 3120 3124 3125 3125 3126 3128 3129 3129 3130 3131 3127
3089 3085 3081 3079 3081 3081 3083 3084 3085 3084 3083 3085 3088 3091 3089 3089 3085 3090 3092 3094 3097 3097 3098 3099 3098 3098 3098 3099 3101 3104 3107 3109 3111 3113 3115 3116 3118 3118 3119 3117 3116 3119 3122 3124
3083 3078 3077 3077 3078 3076 3078 3080 3084 3086 3085 3088 3090 3092 3092 3093 3090 3090 3094 3096 3099 3100 3099 3099 3100 3100 3101 3101 3101 3101 3101 3103 3106 3107 3107 3109 3110 3111 3111 3112 3114 3114 3115 3115